Flag for Latvia Weather past 2 weeks in Jelgava, Latvia

Now
52 °F

Overcast.


Feels Like: 52 °F
Forecast: 53 / 67 °F
Wind: No wind

Location: Riga Airport

Current Time: Jun 2, 2015 at 6:54:32 AM

Latest Report: Jun 2, 2015 at 6:20 AM


Visibility: N/A

Pressure: 30.01 "Hg

Humidity: 100%

Dew point: 52 °F

Location of JelgavaLocation

Historic Weather in Jelgava — Graph

°F

Jelgava temperature yesterday

Maximum temperature yesterday: 72 °F (at 2:20 PM)
Minimum temperature yesterday: 43 °F (at 1:20 AM)
Average temperature yesterday: 59 °F

Past Weeks' High & Low Weather Summary

 TemperatureHumidityPressure
High72 °F (Jun 1, 2:20 PM)100% (May 18, 5:20 AM)30.21 "Hg (May 18, 5:20 AM)
Low36 °F (May 24, 3:20 AM)38% (May 30, 2:20 PM)29.65 "Hg (May 18, 6:50 AM)
Average53 °F76%29.91 "Hg
* Reported May 18 5:20 AM — Jun 2 5:20 AM, Jelgava, Weather by CustomWeather, © 2015

Note: Actual official high and low records may vary slightly from our data, if they occured in-between our weather recording intervals... More about our weather records

Advertising

Jelgava weather history for previous 24 hours

 ConditionsComfort  
Time TempWeatherWind HumidityBarometerVisibility
5:20 AM
Tue, Jun 2
52 °FOvercast.1 mph100%30.01 "HgN/A
4:50 AM52 °FMostly cloudy.2 mph100%30.04 "HgN/A
4:20 AM52 °FMostly cloudy.2 mph100%30.04 "HgN/A
3:50 AM52 °FLight rain. Mostly cloudy.3 mph100%30.04 "HgN/A
3:20 AM52 °FLight rain. Mostly cloudy.2 mph100%30.01 "HgN/A
2:50 AM52 °FLight rain. Mostly cloudy.No wind100%30.01 "HgN/A
2:20 AM52 °FLight rain. Mostly cloudy.1 mph100%30.01 "Hg5 mi
1:50 AM52 °FLight rain. Mostly cloudy.3 mph100%30.01 "HgN/A
1:20 AM54 °FSprinkles. Overcast.7 mph94%30.01 "HgN/A
12:50 AM55 °FSprinkles. Overcast.3 mph100%30.01 "HgN/A
12:20 AM57 °FSprinkles. Partly cloudy.2 mph94%30.01 "HgN/A
11:50 PM
Mon, Jun 1
57 °FSprinkles. Passing clouds.5 mph94%30.01 "HgN/A
11:20 PM57 °FPassing clouds.5 mph94%29.98 "HgN/A
10:50 PM59 °FSprinkles. Scattered clouds.2 mph88%29.98 "HgN/A
10:20 PM59 °FSprinkles. Scattered clouds.5 mph88%29.98 "HgN/A
9:50 PM61 °FSprinkles. Scattered clouds.3 mph77%29.98 "HgN/A
9:20 PM63 °FScattered clouds.5 mph73%29.98 "HgN/A
8:50 PM63 °FScattered clouds.3 mph68%29.98 "HgN/A
8:20 PM64 °FScattered clouds.5 mph64%29.95 "HgN/A
7:50 PM66 °FSprinkles. Scattered clouds.7 mph60%29.95 "HgN/A
7:20 PM70 °FSunny.9 mph53%29.95 "Hg10 mi
6:50 PM70 °FSunny.10 mph50%29.95 "Hg10 mi
6:20 PM70 °FSunny.13 mph50%29.95 "Hg10 mi
5:50 PM70 °FSunny.13 mph50%29.95 "Hg10 mi
5:20 PM70 °FSunny.15 mph46%29.95 "Hg10 mi
4:50 PM70 °FSunny.16 mph46%29.95 "Hg10 mi
4:20 PM70 °FSunny.16 mph43%29.95 "Hg10 mi
3:50 PM70 °FSunny.21 mph43%29.95 "Hg10 mi
3:20 PM72 °FSunny.22 mph41%29.95 "Hg10 mi
2:50 PM72 °FSunny.23 mph41%29.95 "Hg10 mi
2:20 PM72 °FSunny.20 mph44%29.95 "Hg10 mi
1:50 PM68 °FSunny.22 mph43%29.98 "Hg10 mi
1:20 PM68 °FSunny.20 mph46%29.98 "Hg10 mi
12:50 PM66 °FSunny.21 mph46%29.98 "Hg10 mi
12:20 PM68 °FSunny.20 mph46%29.98 "Hg10 mi
11:50 AM66 °FSunny.21 mph46%29.98 "Hg10 mi
11:20 AM66 °FPassing clouds.22 mph46%29.98 "HgN/A
10:50 AM64 °FSunny.22 mph49%29.98 "Hg10 mi
10:20 AM63 °FSunny.17 mph56%29.98 "Hg10 mi
9:50 AM61 °FSunny.16 mph55%29.98 "Hg10 mi
9:20 AM61 °FSunny.15 mph55%29.98 "Hg10 mi
8:50 AM59 °FSunny.13 mph59%30.01 "Hg10 mi
8:20 AM57 °FSunny.14 mph63%30.01 "Hg10 mi
7:50 AM55 °FSunny.13 mph63%30.01 "Hg10 mi
7:20 AM52 °FSunny.13 mph67%30.01 "Hg10 mi
6:20 AM48 °FSunny.13 mph71%30.01 "Hg10 mi
Weather by CustomWeather, © 2015

See weather overviewHow to use our weather pages